TimeMDT,TemperatureF,Dew PointF,Humidity,Sea Level PressureIn,VisibilityMPH,Wind Direction,Wind SpeedMPH,Gust SpeedMPH,PrecipitationIn,Events,Conditions,WindDirDegrees,DateUTC
12:53 AM,44.1,26.1,49,30.06,10.0,Calm,Calm,-,N/A,,Clear,0,2013-08-16 06:53:00
1:53 AM,44.1,25.0,47,30.06,10.0,Calm,Calm,-,N/A,,Clear,0,2013-08-16 07:53:00
2:53 AM,41.0,26.1,55,30.08,10.0,ENE,4.6,-,N/A,,Clear,70,2013-08-16 08:53:00
3:53 AM,39.0,26.1,60,30.09,10.0,Calm,Calm,-,N/A,,Clear,0,2013-08-16 09:53:00
4:53 AM,37.9,26.1,62,30.09,10.0,ESE,3.5,-,N/A,,Clear,110,2013-08-16 10:53:00
5:53 AM,37.0,27.0,67,30.12,10.0,Calm,Calm,-,N/A,,Clear,0,2013-08-16 11:53:00
6:53 AM,37.9,28.0,68,30.13,10.0,Calm,Calm,-,N/A,,Clear,0,2013-08-16 12:53:00
7:53 AM,46.9,30.9,54,30.12,10.0,Calm,Calm,-,N/A,,Clear,0,2013-08-16 13:53:00
8:53 AM,54.0,28.9,38,30.10,10.0,Calm,Calm,-,N/A,,Clear,0,2013-08-16 14:53:00
9:53 AM,60.1,30.0,32,30.08,10.0,Calm,Calm,-,N/A,,Clear,0,2013-08-16 15:53:00
10:53 AM,66.9,21.0,17,30.05,10.0,West,10.4,18.4,N/A,,Partly Cloudy,260,2013-08-16 16:53:00
11:53 AM,68.0,19.0,15,30.06,10.0,SW,6.9,16.1,N/A,,Clear,230,2013-08-16 17:53:00
12:53 PM,69.1,21.0,16,30.05,10.0,NNW,11.5,20.7,N/A,,Scattered Clouds,330,2013-08-16 18:53:00
1:53 PM,70.0,19.0,14,30.04,10.0,NW,6.9,-,N/A,,Mostly Cloudy,320,2013-08-16 19:53:00
2:53 PM,69.1,19.0,15,30.06,10.0,NNW,9.2,-,N/A,,Mostly Cloudy,340,2013-08-16 20:53:00
3:53 PM,71.1,18.0,13,30.04,10.0,Calm,Calm,-,N/A,,Partly Cloudy,0,2013-08-16 21:53:00
4:53 PM,73.0,18.0,12,30.02,10.0,NW,10.4,19.6,N/A,,Mostly Cloudy,310,2013-08-16 22:53:00
5:53 PM,72.0,19.0,13,30.03,10.0,WNW,13.8,20.7,N/A,,Clear,290,2013-08-16 23:53:00
6:53 PM,69.1,19.0,15,30.04,10.0,NW,9.2,-,N/A,,Clear,310,2013-08-17 00:53:00
7:53 PM,62.1,24.1,23,30.04,10.0,NE,5.8,-,N/A,,Clear,40,2013-08-17 01:53:00
8:53 PM,55.0,25.0,31,30.06,10.0,NNE,5.8,-,N/A,,Clear,30,2013-08-17 02:53:00
9:53 PM,55.9,25.0,30,30.04,10.0,East,3.5,-,N/A,,Mostly Cloudy,90,2013-08-17 03:53:00
10:53 PM,52.0,28.0,40,30.03,10.0,Calm,Calm,-,N/A,,Partly Cloudy,0,2013-08-17 04:53:00
11:53 PM,45.0,28.0,52,30.07,10.0,Calm,Calm,-,N/A,,Clear,0,2013-08-17 05:53:00